Weather in Karachino

Russia / Tyumen Oblast     58°01′01″N   68°09′32″E
temp.,
°C
wind,
m/s
gust,
m/s
humid.,
%
clouds,
%
prec.,
mm/h
press.,
hPa
HPBL,
m
28 february, sun
sun2823:00−26se389786 0.0 1026196
02:00−27ese379669 0.0 1024178
05:00−27ese489584 0.0 1022220
08:00−25ese4895100 0.0 1021250
11:00−22ese4894100 0.0 1019297
14:00−18e489295 0.0 1018383
17:00−18e499397 0.0 1017447
20:00−18e41094100 0.0 1016439
1 march, mon
mon123:00−19e4995100 0.1 1016406
02:00−19ene3895100 0.1 1015369
05:00−20ene3796100 0.1 1015303
08:00−21ne3697100 0.1 1015267
11:00−18ne2494100 0.2 1016307
14:00−14nne2492100 0.1 1016391
17:00−14nne1295100 0.1 1017112
20:00−18ne1297100 0.0 101720
2 march, tue
tue223:00−19ese119898 0.1 101820
02:00−21s1110082 0.0 101720
05:00−22s1110088 0.1 101620
08:00−22sse129999 0.0 101620
11:00−16s239298 0.1 1015308
14:00−13s2491100 0.0 1013491
17:00−13sse2494100 0.1 1013180
20:00−17sse259790 0.0 101286
3 march, wed
wed323:00−18s239881 0.1 101260
02:00−20sse239973 0.0 101153
05:00−21sse369967 0.0 101299
08:00−21sse379872 0.0 1011169
11:00−16sse479384 0.0 1010324
14:00−12sse4991100 0.0 1009500
17:00−11sse51091100 0.1 1008575
20:00−13sse41094100 0.4 1007517
4 march, thu
thu423:00−12sse4994100 0.9 1006494
02:00−11sse4994100 0.5 1004461
05:00−10sse41094100 1.0 1003453
08:00−9sse41094100 0.6 1001509
11:00−6se4993100 0.9 1000548
14:00−4se4895100 0.8 998632
17:00−2se4897100 1.9 998537
20:00−2s3797100 1.3 998339